Location: *
(40.7873°S, 98.7174°E)
Time: 10:05:43
(UTC+00:00)

Cosmos 1802 Rocket - Pass Details

Date: 24 May 2022
Orbit: 953 x 1012 km, 82.9° (Epoch: 04 July)

Event Time Altitude Azimuth Distance (km) Brightness Sun altitude
Rises 11:41:36 0° 186° (S) 3,756 7.0 -17.0°
Reaches altitude 10° 11:44:10 10° 184° (S) 2,807 6.3 -17.5°
Maximum altitude 11:50:39 76° 98° (E) 1,052 4.0 -18.7°
Drops below altitude 10° 11:57:05 10° 12° (NNE) 2,793 6.4 -19.9°
Sets 11:59:37 0° 10° (N) 3,736 7.1 -20.4°
